FENGYUN 1C DEB, 31878

Orbit data source: Space-Track

FENGYUN 1C DEB, 31878 is space debris in SSO originally from a launch on Mon, 10 May 1999 UTC launched from the Taiyaun Space Center, China (TSC). Fengyun 1C debris stems from the Chinese weather satellite Fengyun-1C, which was intentionally destroyed by a Chinese anti-satellite missile in 2007. This event dramatically increased the amount of space debris, with thousands of trackable fragments posing hazards to satellites and human spaceflight. The Fengyun 1C debris cloud has become a focal point in discussions about space sustainability and the need for international regulations to prevent the creation of new debris.

Loading next visibility...
Identifier
31878, 1999-025CKD
Orbit
SSO
Country
Flag of CNCN / PRC
Related business
Manufacturer
Unknown
Mission
Spacecraft
Bus & Motor
Unknown
Mass
Unknown
Launch date (UTC)
1999-05-10 (27 years ago)
Launch vehicle
Unknown
Launch site
Taiyaun Space Center, China (TSC)
Object type
Payload
Rocket body
Debris
Shape & HBR
Unknown shape, 0.1 m
Radar Cross Section
Small (<0.1 m²)

Expand to show TLE details & history
Last TLE update: 2 days ago

TLE from 2 days ago
0 FENGYUN 1C DEB
1 31878U 99025CKD 26207.73536045  .00009828  00000-0  94291-3 0  9997
2 31878  99.4550 179.6104 0075140 246.9835 112.3441 14.91247556 14255
Epoch: 2026-07-26T17:38Z
TLE epoch observation values (Epoch: 2026-07-26T17:38:55.142Z)
Latitude
-0.00002°
Longitude
-29.54838°
Altitude
617.286 km
Speed
7.539 km/s
True Right ascension
11h 58m 26s
True Declination
0° 00' 00"
Sunlit
Object was in daylight at epoch
Visualization orbit readout
Latitude
Unknown
Longitude
Unknown
Altitude
Unknown
Speed
Unknown
Apparent Right ascension
Unknown
Apparent Declination
Unknown
Sunlit
N/A
Visualization observer readout
Local Sidereal Time
22:20:27
Azimuth
Unknown
Elevation
Unknown
Doppler factor
Unknown
Orbital elements
Apogee altitude
643.514 km
Perigee altitude
538.779 km
Semi-major axis
6,969.284 km
Eccentricity
0.00751
Inclination
99.455°
RAAN
179.6104°
Arg. of periapsis
246.9835°
True anomaly
113.13763°
Mean anomaly
112.3441°
Eccentric anomaly
112.74115°
Mean motion
3.73045 °/min
Orbital period
96.5 mins
BSTAR
0.00094291
Loading maneuver chart data...
Computing Atmospheric mass density...
Loading historical data...
Loading historical data...
Loading historical data...
Loading historical data...
Loading historical data...
Loading historical data...
Loading historical data...

Documentation

Showing up to 5 results
|